Powrót do katalogu

STARLINK-36959

AktywnyŁącznośćVLEO
NORAD 68060·PAYLOAD·🇺🇸 United States

Wystrzelony Mar 2, 2026 z Vandenberg Space Force Base

Loading…

Następne Przeloty (najbliższe 24 godziny)

TLE

ŚwieżeSource: CelesTrak SupGP

Epoka: Sep 14, 2026, 21:23 UTC

1 68060C 26041W   26257.89145833  .00044714  00000+0  13211-2 0  2572
2 68060  53.1576 245.8899 0001572  92.2774  88.4509 15.34366256    16

Śledź STARLINK-36959 w czasie rzeczywistym z AllMySat

Download on the App Store